#datint,netname,site,siteID,timestamp,IntT,BattV,AirT2,AirT,AirT_Avg,AirT_Max,AirT_Min,RH_Avg,RH_Max,RH_Min,EA_Avg,Td_Avg,Td_Max,Td_Min,WindS_Smp,WindS_Avg,WindD_Avg,WindD_SD,WindS_Max,ETo,ETr,SoilT4,SoilT8,SoilVWC8,SolarW_Avg,wetstate_Avg,wetT_Avg,Precip_accum,Precip_WPG,Precip_TB
15min,AgWx,beryljct,423,07JUN2021:01:00:00,72.3,12.89,72.0,72.1,72.0,72.4,71.6,18,19,18,0.493,26.7,27.8,26.0,11,12.5,196,7.5,19.9,0.00132,0.00167,67.4,68.4,10,0,0,.,8.86,0.00,0.00
15min,AgWx,beryljct,423,07JUN2021:01:15:00,71.9,12.86,71.1,71.9,71.7,72.4,71.3,18,19,18,0.496,26.6,27.6,25.9,10.04,11.6,198,7.3,16.8,0.00125,0.00159,67.1,68.4,10,0,0,.,8.86,0.00,0.00
15min,AgWx,beryljct,423,07JUN2021:01:30:00,71.6,12.87,71.5,71.3,71.5,71.9,70.9,19,19,18,0.483,26.5,27.3,25.8,12.96,11.7,197,7.2,17.1,0.00124,0.00159,66.9,68.3,9,0,0,.,8.86,0.00,0.00
15min,AgWx,beryljct,423,07JUN2021:01:45:00,71.3,12.87,70.6,70.9,71.3,71.6,70.8,18,19,18,0.491,26.2,27.3,25.4,8.51,11.7,196,7.1,18.1,0.00125,0.00159,66.7,68.2,10,0,0,.,8.86,0.00,0.00
15min,AgWx,beryljct,423,07JUN2021:02:00:00,70.8,12.87,70.5,70.4,70.6,70.9,70.3,19,20,19,0.488,26.6,27.1,25.9,8.99,9.4,199,7.4,12.0,0.00103,0.00136,66.5,68.1,9,0,0,.,8.86,0.00,0.00
15min,AgWx,beryljct,423,07JUN2021:02:15:00,70.4,12.86,70.2,70.5,70.7,71.3,70.2,19,20,18,0.474,26.3,27.8,25.4,8.18,9.8,192,8.6,14.5,0.00108,0.00141,66.2,68.0,9,0,0,.,8.86,0.00,0.00
15min,AgWx,beryljct,423,07JUN2021:02:30:00,69.7,12.85,65.3,66.0,69.0,70.6,66.0,21,25,19,0.536,27.3,29.8,25.7,5.042,4.9,157,55,9.4,0.00051,0.00076,66.0,68.0,10,0,0,.,8.86,0.00,0.00
15min,AgWx,beryljct,423,07JUN2021:02:45:00,68.0,12.84,67.9,65.1,64.1,66.2,61.2,26,32,22,0.498,28.8,31.9,25.7,3.266,4.3,34,18,7.6,0.00035,0.00053,65.8,67.8,10,0,0,.,8.87,0.00,0.00
15min,AgWx,beryljct,423,07JUN2021:03:00:00,66.3,12.83,57.9,59.6,64.9,67.9,59.6,26,38,20,0.663,28.5,34.1,25.6,0.022,1.5,56,25,4.8,-0.00011,-0.00012,65.5,67.8,10,0,0,.,8.87,0.00,0.00
15min,AgWx,beryljct,423,07JUN2021:03:15:00,64.4,12.83,65.8,65.9,62.1,67.0,56.6,29,45,20,0.491,29.1,35.9,24.8,4.867,2.6,267,17,4.9,0.00007,0.00016,65.3,67.7,9,0,0,.,8.87,0.00,0.00
15min,AgWx,beryljct,423,07JUN2021:03:30:00,63.2,12.82,58.5,57.0,61.7,67.0,57.0,30,40,20,0.631,29.8,33.7,24.8,4.143,4.3,252,8.8,6.0,0.00032,0.00048,65.1,67.6,10,0,0,.,8.87,0.00,0.00
15min,AgWx,beryljct,423,07JUN2021:03:45:00,61.7,12.81,58.9,60.7,59.8,62.7,57.2,31,40,24,0.579,29.3,33.3,25.3,0,1.9,208,13,4.8,-0.00004,-0.00001,64.8,67.4,10,0,0,.,8.87,0.00,0.00
15min,AgWx,beryljct,423,07JUN2021:04:00:00,60.5,12.81,53.4,53.9,58.6,60.3,53.9,33,45,28,0.631,29.7,33.6,26.9,2.126,2.9,53,24,4.3,0.00009,0.00018,64.5,67.4,9,0,0,.,8.87,0.00,0.00
15min,AgWx,beryljct,423,07JUN2021:04:15:00,59.3,12.79,57.6,56.6,55.0,56.6,52.8,38,46,33,0.521,29.9,32.8,27.0,1.25,2.4,37,38,4.5,0.00001,0.00006,64.3,67.3,10,0,0,.,8.87,0.00,0.00
15min,AgWx,beryljct,423,07JUN2021:04:30:00,58.2,12.79,54.4,55.4,55.8,57.4,53.6,37,46,31,0.599,29.9,33.6,26.9,2.411,1.2,340,25,3.0,-0.00017,-0.00023,64.1,67.2,9,0,0,.,8.88,0.00,0.00
15min,AgWx,beryljct,423,07JUN2021:04:45:00,57.4,12.79,59.4,59.2,57.4,60.1,54.8,34,42,28,0.537,29.0,32.7,26.7,1.008,2.1,256,58,5.5,-0.00002,0.00002,63.8,67.1,10,0,0,.,8.88,0.00,0.00
15min,AgWx,beryljct,423,07JUN2021:05:00:00,57.1,12.77,59.9,62.5,59.2,62.5,55.5,30,44,23,0.452,27.7,34.5,24.2,0.658,1.7,222,23,4.9,-0.00007,-0.00006,63.5,66.9,10,0,0,.,8.87,0.00,0.00
15min,AgWx,beryljct,423,07JUN2021:05:15:00,57.0,12.77,56.1,60.0,59.8,63.5,54.5,30,46,22,0.503,28.2,34.9,23.7,3.091,2.8,251,5.0,4.4,0.00010,0.00020,63.3,66.9,9,0,0,.,8.88,0.00,0.00
15min,AgWx,beryljct,423,07JUN2021:05:30:00,56.4,12.76,54.9,53.7,55.0,59.9,51.8,41,48,29,0.560,31.5,34.2,26.6,2.894,3.3,231,14,4.6,0.00051,0.00090,63.0,66.8,10,0,0,.,8.88,0.00,0.00
15min,AgWx,beryljct,423,07JUN2021:05:45:00,55.5,12.75,58.1,53.8,53.5,56.5,51.2,42,49,35,0.516,30.9,33.0,27.9,3.003,3.5,227,21,5.3,0.00050,0.00088,62.8,66.7,10,0,0,.,8.88,0.00,0.00
15min,AgWx,beryljct,423,07JUN2021:06:00:00,54.7,12.75,56.3,55.0,54.1,58.4,51.1,39,49,26,0.472,28.9,32.6,23.6,0.417,0.8,202,8.6,2.9,0.00015,0.00025,62.5,66.6,9,0,0,.,8.88,0.00,0.00
15min,AgWx,beryljct,423,07JUN2021:06:15:00,53.9,12.76,52.1,51.5,52.3,55.5,50.3,46,53,32,0.633,31.8,33.8,25.7,0.57,0.3,177,10,1.5,0.00007,0.00010,62.2,66.5,10,3,0,.,8.88,0.00,0.00
15min,AgWx,beryljct,423,07JUN2021:06:30:00,53.4,12.76,56.0,54.6,52.5,54.6,50.3,45,53,38,0.551,31.6,33.7,29.5,1.206,0.8,198,24,2.5,0.00023,0.00033,62.0,66.3,9,19,0,.,8.88,0.00,0.00
15min,AgWx,beryljct,423,07JUN2021:06:45:00,53.4,12.77,56.3,54.8,55.9,59.4,53.9,36,44,26,0.555,29.4,33.7,24.9,0.877,0.7,228,7.8,3.2,0.00039,0.00050,61.7,66.2,10,40,0,.,8.89,0.00,0.00
15min,AgWx,beryljct,423,07JUN2021:07:00:00,54.0,12.79,61.9,59.7,56.1,59.7,54.2,36,48,26,0.463,29.5,35.9,24.3,1.074,2.1,239,27,5.2,0.00081,0.00112,61.5,66.1,10,87,0,.,8.89,0.00,0.00
15min,AgWx,beryljct,423,07JUN2021:07:15:00,55.8,12.77,57.5,62.1,60.4,63.0,57.8,32,50,24,0.733,30.1,39.9,23.9,2.324,1.1,193,51,4.3,0.00089,0.00111,61.3,66.0,10,127,0,.,8.88,0.00,0.00
15min,AgWx,beryljct,423,07JUN2021:07:30:00,58.3,12.78,56.8,57.1,59.9,62.3,57.1,45,60,30,0.946,38.2,44.1,30.8,3.968,1.5,168,43,4.2,0.00111,0.00135,61.1,65.9,10,169,0,.,8.88,0.00,0.00
15min,AgWx,beryljct,423,07JUN2021:07:45:00,60.0,12.77,59.2,58.8,58.0,59.1,57.0,44,60,36,0.798,36.3,43.3,32.3,0,2.3,31,9.2,4.3,0.00142,0.00176,60.9,65.8,9,214,0,.,8.88,0.00,0.00
15min,AgWx,beryljct,423,07JUN2021:08:00:00,62.1,12.81,60.8,60.8,60.2,61.6,58.8,44,49,36,0.882,37.9,41.3,33.1,0.68,0.2,351,2.8,1.0,0.00147,0.00160,60.7,65.6,9,261,0,.,8.88,0.00,0.00
15min,AgWx,beryljct,423,07JUN2021:08:15:00,64.7,12.82,65.0,64.9,62.8,64.9,60.9,49,55,37,0.952,43.3,46.0,37.8,2.258,0.5,71,27,2.3,0.00185,0.00203,60.6,65.5,10,313,0,.,8.88,0.00,0.00
15min,AgWx,beryljct,423,07JUN2021:08:30:00,67.1,12.84,66.3,66.4,65.6,66.4,64.9,41,48,35,0.870,41.2,44.9,37.6,3.793,2.9,88,9.4,4.7,0.00250,0.00301,60.5,65.4,10,364,0,.,8.88,0.00,0.00
15min,AgWx,beryljct,423,07JUN2021:08:45:00,69.1,12.92,68.1,67.8,67.1,67.9,66.4,39,44,32,0.823,41.0,43.9,36.6,4.209,4.0,99,6.7,6.0,0.00297,0.00366,60.5,65.3,10,413,0,.,8.87,0.00,0.00
15min,AgWx,beryljct,423,07JUN2021:09:00:00,71.2,13.04,71.2,71.3,69.0,71.3,67.9,34,39,22,0.609,38.9,43.1,30.5,10.39,3.8,120,32,10.4,0.00335,0.00409,60.5,65.2,10,463,0,.,8.87,0.00,0.00
15min,AgWx,beryljct,423,07JUN2021:09:15:00,73.1,13.24,73.7,73.0,72.0,73.0,71.0,23,28,19,0.587,32.4,36.7,28.3,6.094,7.3,165,24,14.8,0.00437,0.00580,60.6,65.0,9,513,0,.,8.87,0.00,0.00
15min,AgWx,beryljct,423,07JUN2021:09:30:00,74.6,13.41,72.9,73.9,73.4,74.2,72.7,20,24,17,0.600,30.1,34.7,26.9,7.541,10.0,184,13,14.7,0.00509,0.00696,60.7,64.9,9,554,0,.,8.86,0.00,0.00
15min,AgWx,beryljct,423,07JUN2021:09:45:00,75.9,13.96,74.2,74.4,74.1,74.6,73.6,20,24,16,0.588,29.9,34.8,25.5,11.68,9.1,175,16,13.0,0.00537,0.00717,60.9,64.8,9,616,0,.,8.86,0.00,0.00
15min,AgWx,beryljct,423,07JUN2021:10:00:00,77.0,13.98,74.6,74.7,74.6,75.1,74.3,20,24,17,0.561,30.6,35.0,27.5,8.68,8.8,193,15,14.0,0.00551,0.00729,61.1,64.7,9,636,0,.,8.86,0.00,0.00
15min,AgWx,beryljct,423,07JUN2021:10:15:00,77.9,14,76.0,75.8,75.2,75.9,74.7,19,23,17,0.584,30.4,34.7,27.5,11.25,11.1,188,13,20.4,0.00619,0.00832,61.4,64.6,9,702,0,.,8.85,0.00,0.00
15min,AgWx,beryljct,423,07JUN2021:10:30:00,78.7,13.95,75.6,76.0,75.8,76.5,75.3,19,22,17,0.626,31.0,34.5,28.0,9.82,11.6,196,15,15.3,0.00651,0.00874,61.6,64.5,9,740,0,.,8.85,0.00,0.00
15min,AgWx,beryljct,423,07JUN2021:10:45:00,79.3,13.95,75.0,75.6,76.0,76.9,75.5,19,23,16,0.583,30.5,35.1,27.1,9.86,11.7,168,13,18.1,0.00662,0.00889,62.0,64.5,9,748,0,.,8.85,0.00,0.00
15min,AgWx,beryljct,423,07JUN2021:11:00:00,79.5,13.95,76.6,76.7,76.0,77.0,75.1,19,23,16,0.635,30.5,34.5,27.0,9.56,11.3,171,17,18.9,0.00658,0.00880,62.4,64.4,9,746,0,.,8.85,0.00,0.00
15min,AgWx,beryljct,423,07JUN2021:11:15:00,80.4,13.96,77.5,77.5,77.2,77.8,76.7,19,22,16,0.642,31.3,35.2,27.9,9.32,10.3,181,20,16.6,0.00728,0.00945,62.9,64.4,9,881,0,.,8.85,0.00,0.00
15min,AgWx,beryljct,423,07JUN2021:11:30:00,81.6,13.9,79.5,79.1,78.1,79.3,77.1,20,25,15,0.645,33.4,39.0,28.2,9.67,8.9,174,22,15.6,0.00740,0.00938,63.4,64.3,9,919,0,.,8.84,0.00,0.00
15min,AgWx,beryljct,423,07JUN2021:11:45:00,82.4,13.89,77.7,78.3,79.3,79.7,78.3,18,22,16,0.534,31.6,37.4,28.7,12.65,15.8,194,9.1,21.9,0.00849,0.01149,64.0,64.3,9,955,0,.,8.85,0.00,0.00
15min,AgWx,beryljct,423,07JUN2021:12:00:00,82.4,13.96,80.0,79.5,78.8,79.5,77.7,18,20,16,0.616,31.7,34.1,28.7,14.25,14.4,192,13,19.8,0.00768,0.01045,64.6,64.3,9,834,0,.,8.85,0.00,0.00
15min,AgWx,beryljct,423,07JUN2021:12:15:00,82.5,13.45,78.6,79.3,78.8,79.7,77.9,18,22,16,0.582,32.1,36.2,28.7,15.24,13.9,194,18,20.7,0.00787,0.01058,65.3,64.2,9,884,0,.,8.85,0.00,0.00
15min,AgWx,beryljct,423,07JUN2021:12:30:00,82.8,13.44,79.2,78.9,79.1,80.1,77.9,19,22,16,0.606,32.7,37.1,29.5,15.39,13.9,188,18,20.3,0.00772,0.01042,65.9,64.3,9,848,0,.,8.85,0.00,0.00
15min,AgWx,beryljct,423,07JUN2021:12:45:00,83.1,13.47,79.2,79.3,79.4,80.2,78.7,18,21,16,0.556,32.1,36.5,29.0,17.12,14.6,177,15,22.1,0.00786,0.01068,66.5,64.3,10,850,0,.,8.85,0.00,0.00
15min,AgWx,beryljct,423,07JUN2021:13:00:00,83.2,13.49,77.0,77.8,79.2,80.2,77.8,18,21,16,0.646,31.8,36.3,29.3,15.19,14.7,186,16,22.2,0.00730,0.01010,67.1,64.3,9,732,0,.,8.85,0.00,0.00
15min,AgWx,beryljct,423,07JUN2021:13:15:00,82.4,13.51,76.4,76.6,77.4,78.1,76.6,19,23,18,0.689,32.5,36.1,30.1,11.38,13.0,196,18,18.4,0.00568,0.00809,67.6,64.4,10,489,0,.,8.85,0.00,0.00
15min,AgWx,beryljct,423,07JUN2021:13:30:00,81.4,13.49,76.5,76.5,77.0,77.4,76.3,20,23,17,0.595,32.8,36.2,29.5,17.14,12.9,193,12,20.5,0.00532,0.00765,68.2,64.4,9,436,0,.,8.85,0.00,0.00
15min,AgWx,beryljct,423,07JUN2021:13:45:00,80.4,13.53,76.2,75.5,75.8,76.6,75.2,20,22,18,0.599,31.3,33.6,29.4,14.95,14.6,202,11,20.1,0.00531,0.00782,68.6,64.5,9,399,0,.,8.85,0.00,0.00
15min,AgWx,beryljct,423,07JUN2021:14:00:00,80.0,13.54,77.0,77.2,76.5,77.8,75.6,20,25,19,0.787,33.0,38.4,30.8,7.848,15.1,204,14,21.6,0.00683,0.00949,68.9,64.6,9,709,0,.,8.85,0.00,0.00
15min,AgWx,beryljct,423,07JUN2021:14:15:00,80.4,13.52,76.0,75.9,76.9,77.7,75.9,22,25,19,0.703,34.8,38.7,31.7,16.51,12.7,207,13,18.0,0.00572,0.00800,69.1,64.7,9,536,0,.,8.85,0.00,0.00
15min,AgWx,beryljct,423,07JUN2021:14:30:00,79.8,13.54,75.9,75.8,75.9,76.4,75.4,22,25,20,0.680,34.2,37.4,32.3,12.52,14.3,203,13,22.8,0.00530,0.00771,69.3,64.8,10,426,0,.,8.85,0.00,0.00
15min,AgWx,beryljct,423,07JUN2021:14:45:00,79.1,13.62,76.5,75.8,75.2,76.0,74.6,24,27,21,0.805,36.1,39.0,33.1,12.36,14.3,214,11,19.3,0.00524,0.00756,69.5,64.9,10,450,0,.,8.86,0.00,0.00
15min,AgWx,beryljct,423,07JUN2021:15:00:00,78.8,13.55,75.4,75.4,75.4,76.1,75.0,23,26,22,0.708,35.4,38.2,33.5,16.02,16.9,210,13,25.7,0.00571,0.00834,69.6,65.0,10,490,0,.,8.86,0.00,0.00
15min,AgWx,beryljct,423,07JUN2021:15:15:00,78.9,13.52,74.4,75.1,76.0,77.0,75.1,23,26,21,0.736,35.7,38.6,33.1,12.17,15.8,214,13,26.0,0.00604,0.00862,69.7,65.1,9,569,0,.,8.85,0.00,0.00
15min,AgWx,beryljct,423,07JUN2021:15:30:00,78.7,13.57,75.7,75.6,75.6,75.9,74.9,23,27,20,0.686,35.0,38.9,32.3,15.32,14.4,209,14,22.2,0.00509,0.00746,69.8,65.3,9,410,0,.,8.86,0.00,0.00
15min,AgWx,beryljct,423,07JUN2021:15:45:00,78.6,13.59,76.0,75.7,75.6,75.9,75.4,24,25,21,0.689,35.8,37.7,33.6,17.56,14.6,205,13,22.2,0.00528,0.00766,69.9,65.4,9,460,0,.,8.86,0.00,0.00
15min,AgWx,beryljct,423,07JUN2021:16:00:00,78.8,13.58,75.1,75.6,76.4,77.3,75.6,22,24,20,0.731,34.2,36.8,32.5,12.65,16.6,190,11,23.7,0.00555,0.00825,70.0,65.5,9,440,0,.,8.85,0.00,0.00
15min,AgWx,beryljct,423,07JUN2021:16:15:00,78.8,13.55,74.9,75.3,75.8,76.5,75.3,22,25,20,0.671,34.8,37.4,32.4,19.23,15.7,200,11,21.6,0.00509,0.00761,70.1,65.6,9,389,0,.,8.86,0.00,0.00
15min,AgWx,beryljct,423,07JUN2021:16:30:00,78.2,13.56,74.4,75.5,75.1,75.7,74.7,23,25,20,0.679,34.5,36.8,32.2,10.41,15.0,200,11,23.7,0.00443,0.00683,70.2,65.7,9,269,0,.,8.86,0.00,0.00
15min,AgWx,beryljct,423,07JUN2021:16:45:00,77.9,13.55,75.3,75.1,75.2,75.4,74.9,21,23,18,0.536,32.3,35.3,28.8,16.44,16.1,213,9.5,20.7,0.00511,0.00770,70.2,65.8,9,401,0,.,8.86,0.00,0.00
15min,AgWx,beryljct,423,07JUN2021:17:00:00,78.0,13.55,75.3,75.9,75.7,76.0,75.1,19,22,17,0.567,30.5,34.1,28.5,16.42,16.3,213,8.6,24.8,0.00553,0.00823,70.2,65.9,9,493,0,.,8.86,0.00,0.00
15min,AgWx,beryljct,423,07JUN2021:17:15:00,78.4,13.55,76.2,76.4,76.5,77.1,75.7,18,20,16,0.516,29.2,31.9,26.6,18.44,16.0,194,12,22.5,0.00521,0.00794,70.2,66.0,9,407,0,.,8.86,0.00,0.00
15min,AgWx,beryljct,423,07JUN2021:17:30:00,78.2,13.57,76.0,75.3,75.5,76.4,75.1,18,20,17,0.522,28.8,30.9,27.6,16.53,16.3,200,8.7,21.5,0.00459,0.00728,70.2,66.1,9,257,0,.,8.86,0.00,0.00
15min,AgWx,beryljct,423,07JUN2021:17:45:00,77.7,13.59,76.4,76.3,75.5,76.3,74.9,19,21,17,0.544,30.0,33.0,27.8,15.85,12.7,193,12,18.2,0.00398,0.00620,70.3,66.2,9,269,0,.,8.86,0.00,0.00
15min,AgWx,beryljct,423,07JUN2021:18:00:00,77.6,13.58,75.4,75.8,76.0,76.3,75.6,18,19,17,0.542,29.4,31.2,27.8,17.1,14.8,193,9.1,24.1,0.00422,0.00673,70.2,66.3,10,263,0,.,8.86,0.00,0.00
15min,AgWx,beryljct,423,07JUN2021:18:15:00,77.4,13.28,75.7,75.9,75.6,75.9,75.3,17,20,16,0.486,28.3,31.0,26.2,14.38,15.1,198,8.9,21.4,0.00398,0.00651,70.2,66.3,9,196,0,.,8.86,0.00,0.00
15min,AgWx,beryljct,423,07JUN2021:18:30:00,77.1,13.22,75.6,75.9,75.6,76.1,75.2,17,19,16,0.515,27.9,30.2,26.7,13.77,12.0,190,13,17.1,0.00325,0.00538,70.1,66.4,10,140,0,.,8.86,0.00,0.00
15min,AgWx,beryljct,423,07JUN2021:18:45:00,76.8,13.17,74.7,75.3,75.7,75.9,75.3,17,18,16,0.544,28.4,29.5,27.2,10.11,12.3,175,12,17.9,0.00313,0.00530,70.1,66.5,10,110,0,.,8.86,0.00,0.00
15min,AgWx,beryljct,423,07JUN2021:19:00:00,76.3,13.23,75.0,75.4,75.3,75.6,75.0,18,19,17,0.552,28.8,30.1,27.5,8.11,10.0,170,8.8,14.8,0.00250,0.00432,69.9,66.5,10,79,0,.,8.86,0.00,0.00
15min,AgWx,beryljct,423,07JUN2021:19:15:00,75.8,13.21,74.9,74.5,74.8,75.4,74.3,19,21,17,0.565,30.3,32.0,27.8,9.25,7.4,195,7.8,10.8,0.00154,0.00289,69.8,66.6,10,83,0,.,8.86,0.00,0.00
15min,AgWx,beryljct,423,07JUN2021:19:30:00,75.2,13.19,75.5,74.0,74.1,74.9,73.4,21,24,18,0.556,31.8,34.6,28.8,8.07,6.8,211,10,12.5,0.00131,0.00253,69.6,66.6,10,84,0,.,8.85,0.00,0.00
15min,AgWx,beryljct,423,07JUN2021:19:45:00,74.9,13.1,73.1,73.4,74.4,75.2,73.3,20,24,17,0.635,31.2,34.2,28.0,6.335,7.7,217,10,10.9,0.00163,0.00301,69.5,66.7,10,100,0,.,8.86,0.00,0.00
15min,AgWx,beryljct,423,07JUN2021:20:00:00,74.6,13.09,73.6,73.6,73.8,74.6,73.0,21,24,19,0.582,31.6,34.3,29.1,7.344,8.0,214,8.7,10.9,0.00126,0.00168,69.3,66.7,10,80,0,.,8.86,0.00,0.00
15min,AgWx,beryljct,423,07JUN2021:20:15:00,74.1,13.05,74.4,72.6,73.4,74.0,72.5,21,23,19,0.580,30.8,32.5,28.9,10.7,8.1,217,9.2,12.7,0.00116,0.00156,69.1,66.8,10,38,0,.,8.86,0.00,0.00
15min,AgWx,beryljct,423,07JUN2021:20:30:00,73.6,13.01,73.2,73.4,73.1,74.0,71.9,20,24,19,0.544,29.9,33.2,27.9,13.22,10.2,222,9.7,16.9,0.00131,0.00169,69.0,66.8,10,23,0,.,8.86,0.00,0.00
15min,AgWx,beryljct,423,07JUN2021:20:45:00,73.4,12.99,73.2,72.8,73.1,73.6,72.4,19,20,18,0.498,28.7,29.9,27.0,14.23,11.5,219,9.9,18.8,0.00139,0.00177,68.8,66.8,10,8,0,.,8.86,0.00,0.00
15min,AgWx,beryljct,423,07JUN2021:21:00:00,73.0,12.97,72.6,71.8,72.6,73.0,71.8,18,19,17,0.499,27.3,28.2,26.0,12.41,9.9,212,7.3,13.2,0.00126,0.00164,68.6,66.8,10,2,0,.,8.86,0.00,0.00
15min,AgWx,beryljct,423,07JUN2021:21:15:00,72.3,12.92,70.2,70.3,71.2,72.0,70.3,19,20,17,0.489,26.7,28.3,24.9,7.344,7.7,221,8.1,12.5,0.00103,0.00139,68.4,66.9,10,0,0,.,8.86,0.00,0.00
15min,AgWx,beryljct,423,07JUN2021:21:30:00,71.2,12.93,67.0,67.8,69.2,70.4,67.7,21,26,19,0.543,27.7,32.1,26.1,4.384,5.7,232,5.7,7.7,0.00076,0.00107,68.2,66.9,10,0,0,.,8.86,0.00,0.00
15min,AgWx,beryljct,423,07JUN2021:21:45:00,69.6,12.92,67.1,68.3,67.3,68.9,65.9,23,27,18,0.449,27.7,31.7,23.4,1.71,3.6,213,18,6.4,0.00045,0.00068,68.0,66.9,9,0,0,.,8.86,0.00,0.00
15min,AgWx,beryljct,423,07JUN2021:22:00:00,67.8,12.93,64.1,64.0,65.4,68.2,62.7,27,41,18,0.619,30.0,39.2,23.5,0.702,1.0,213,5.0,2.1,-0.00003,-0.00002,67.8,66.9,9,0,0,.,8.86,0.00,0.00
15min,AgWx,beryljct,423,07JUN2021:22:15:00,66.4,12.93,67.4,65.2,65.8,67.5,63.9,24,32,18,0.504,27.7,35.2,22.7,3.639,2.0,170,37,4.3,0.00016,0.00028,67.5,66.8,10,0,0,.,8.87,0.00,0.00
15min,AgWx,beryljct,423,07JUN2021:22:30:00,65.4,12.92,60.9,61.4,64.4,66.4,61.4,26,37,19,0.631,28.4,35.6,23.3,0,2.9,147,26,5.7,0.00031,0.00048,67.3,66.8,9,0,0,.,8.87,0.00,0.00
15min,AgWx,beryljct,423,07JUN2021:22:45:00,64.4,12.92,64.1,63.6,63.1,65.6,61.3,27,34,20,0.489,28.7,32.9,22.5,1.184,1.9,199,63,4.4,0.00012,0.00022,67.0,66.8,9,0,0,.,8.87,0.00,0.00
15min,AgWx,beryljct,423,07JUN2021:23:00:00,63.6,12.91,62.7,62.5,62.9,64.6,61.3,27,35,21,0.550,28.5,33.4,23.6,0.965,1.0,130,41,2.7,-0.00004,-0.00002,66.7,66.8,10,0,0,.,8.87,0.00,0.00
15min,AgWx,beryljct,423,07JUN2021:23:15:00,62.9,12.9,61.0,64.0,63.4,65.7,61.3,26,34,19,0.529,27.9,33.1,22.8,0.197,1.5,206,16,4.3,0.00006,0.00013,66.5,66.8,10,0,0,.,8.87,0.00,0.00
15min,AgWx,beryljct,423,07JUN2021:23:30:00,62.3,12.89,65.0,63.7,63.7,64.5,62.6,24,30,20,0.453,26.3,30.5,22.9,1.491,1.0,203,20,3.6,-0.00004,-0.00003,66.2,66.7,9,0,0,.,8.87,0.00,0.00
15min,AgWx,beryljct,423,07JUN2021:23:45:00,61.9,12.87,64.2,65.2,64.8,65.3,63.8,21,22,20,0.430,23.6,25.1,22.8,3.091,2.1,192,24,3.5,0.00018,0.00032,66.0,66.7,10,0,0,.,8.87,0.00,0.00
15min,AgWx,beryljct,423,08JUN2021:00:00:00,61.7,12.87,63.8,63.6,64.1,65.5,62.1,23,30,20,0.488,25.6,30.7,23.1,0.132,2.0,183,20,3.8,0.00016,0.00028,65.7,66.7,10,0,0,.,8.87,0.00,0.00
15min,AgWx,beryljct,423,08JUN2021:00:15:00,61.1,12.87,64.5,63.9,63.4,64.6,61.7,23,30,21,0.459,25.3,30.0,23.5,2.148,1.2,187,20,2.9,0.00000,0.00004,65.5,66.6,9,0,0,.,8.87,0.00,0.00
15min,AgWx,beryljct,423,08JUN2021:00:30:00,60.6,12.87,62.9,62.7,63.1,64.0,61.9,25,30,23,0.476,26.8,30.3,25.0,2.148,2.5,183,14,4.5,0.00023,0.00037,65.2,66.6,10,0,0,.,8.87,0.00,0.00
15min,AgWx,beryljct,423,08JUN2021:00:45:00,60.3,12.86,63.1,61.7,61.9,64.3,59.7,29,36,21,0.518,28.6,33.7,23.8,3.069,1.9,189,19,4.3,0.00012,0.00021,64.9,66.5,10,0,0,.,8.87,0.00,0.00
15min,AgWx,bigpiney,439,07JUN2021:01:00:00,53.3,12.64,51.2,49.9,50.0,51.2,48.2,51,56,49,0.637,32.8,33.7,32.3,3.486,2.9,172,9.8,3.9,-0.00000,0.00003,54.2,48.7,47,0,0,0.0,1.99,0.00,0.00
15min,AgWx,bigpiney,439,07JUN2021:01:15:00,52.5,12.64,45.4,46.9,49.7,52.0,46.9,52,60,46,0.655,33.0,33.7,31.9,3.573,3.9,180,10,4.9,0.00007,0.00013,54.1,48.7,47,0,0,0.0,1.99,0.00,0.00
15min,AgWx,bigpiney,439,07JUN2021:01:30:00,51.6,12.63,42.5,43.0,44.7,47.6,43.0,68,73,59,0.687,34.7,35.2,33.8,3.749,4.1,199,12,6.1,-0.00000,0.00002,54.0,48.7,47,0,0,0.0,1.99,0.00,0.00
15min,AgWx,bigpiney,439,07JUN2021:01:45:00,50.4,12.61,44.2,43.8,43.3,44.2,41.8,70,74,67,0.666,34.2,35.0,33.7,5.327,4.8,192,13,7.1,0.00001,0.00003,53.9,48.7,47,0,0,0.0,1.99,0.00,0.00
15min,AgWx,bigpiney,439,07JUN2021:02:00:00,49.5,12.61,44.0,44.3,44.3,45.0,43.8,65,68,63,0.644,33.5,34.2,33.2,4.626,4.4,231,11,5.5,0.00002,0.00005,53.8,48.6,47,0,0,0.0,1.99,0.00,0.00
15min,AgWx,bigpiney,439,07JUN2021:02:15:00,49.0,12.61,44.8,45.0,45.0,45.5,44.1,62,65,61,0.646,32.9,33.4,32.6,4.516,5.1,244,4.6,6.3,0.00007,0.00011,53.7,48.7,47,0,0,0.0,1.99,0.00,0.00
15min,AgWx,bigpiney,439,07JUN2021:02:30:00,48.6,12.59,42.6,42.6,43.9,45.1,42.6,66,70,63,0.649,33.3,33.9,32.8,2.959,3.0,259,14,4.4,-0.00005,-0.00004,53.6,48.6,47,0,0,0.0,1.99,0.00,0.00
15min,AgWx,bigpiney,439,07JUN2021:02:45:00,48.2,12.58,45.6,45.5,44.2,45.8,42.2,63,71,58,0.605,32.5,33.6,31.8,2.083,3.4,263,12,5.5,-0.00002,0.00000,53.5,48.7,47,0,0,0.0,1.99,0.00,0.00
15min,AgWx,bigpiney,439,07JUN2021:03:00:00,47.7,12.58,45.7,45.3,44.6,45.6,43.5,62,65,58,0.608,32.2,32.7,31.8,1.052,0.5,192,32,2.0,-0.00025,-0.00038,53.4,48.7,47,0,0,0.0,1.99,0.00,0.00
15min,AgWx,bigpiney,439,07JUN2021:03:15:00,47.2,12.57,44.4,43.9,44.7,46.6,42.3,60,68,54,0.599,31.8,32.5,31.0,5.656,3.1,241,30,5.7,-0.00003,-0.00001,53.3,48.7,47,0,0,0.0,1.99,0.00,0.00
15min,AgWx,bigpiney,439,07JUN2021:03:30:00,46.7,12.56,42.1,42.3,42.4,44.1,41.8,64,66,61,0.576,31.2,31.5,30.5,2.674,4.0,269,11,5.9,0.00000,0.00003,53.2,48.6,47,0,0,0.0,1.99,0.00,0.00
15min,AgWx,bigpiney,439,07JUN2021:03:45:00,46.0,12.55,39.2,40.2,42.9,43.9,40.2,61,68,58,0.577,30.5,30.8,30.2,5.502,2.6,278,32,5.5,-0.00007,-0.00007,53.1,48.6,47,0,0,0.0,1.99,0.00,0.00
15min,AgWx,bigpiney,439,07JUN2021:04:00:00,45.2,12.54,39.4,39.5,39.8,41.2,39.0,70,72,66,0.581,30.8,31.1,30.4,3.464,4.2,231,8.9,5.5,-0.00001,0.00000,53.0,48.6,47,0,0,0.0,1.99,0.00,0.00
15min,AgWx,bigpiney,439,07JUN2021:04:15:00,44.5,12.53,41.1,40.3,39.6,40.5,38.8,72,74,69,0.591,31.2,31.5,30.8,5.152,5.3,224,9.2,6.4,0.00001,0.00004,52.8,48.6,47,0,0,0.0,1.99,0.00,0.00
15min,AgWx,bigpiney,439,07JUN2021:04:30:00,44.1,12.51,39.4,39.8,40.6,41.1,39.8,68,70,67,0.581,31.0,31.4,30.6,4.187,5.3,226,7.0,6.0,0.00003,0.00006,52.8,48.5,47,0,0,0.0,1.99,0.00,0.00
15min,AgWx,bigpiney,439,07JUN2021:04:45:00,43.7,12.52,38.4,38.4,38.9,39.9,38.3,72,75,70,0.591,30.7,31.2,30.3,5.305,5.1,219,9.4,6.4,0.00001,0.00003,52.6,48.6,47,0,0,0.0,1.99,0.00,0.00
15min,AgWx,bigpiney,439,07JUN2021:05:00:00,43.2,12.51,37.4,38.0,38.6,38.9,38.0,76,78,73,0.603,31.6,32.3,30.9,4.56,4.8,217,19,5.6,-0.00002,-0.00001,52.5,48.5,47,0,0,0.0,1.99,0.00,0.00
15min,AgWx,bigpiney,439,07JUN2021:05:15:00,42.8,12.49,41.4,41.2,39.0,41.2,37.7,70,78,62,0.541,30.1,31.4,29.0,0.57,2.1,339,48,5.2,-0.00011,-0.00014,52.4,48.5,47,0,0,0.0,1.99,0.00,0.00
15min,AgWx,bigpiney,439,07JUN2021:05:30:00,42.4,12.49,37.7,40.8,41.0,42.8,39.4,63,67,57,0.529,29.2,29.8,28.5,7.3,2.3,245,40,7.3,-0.00008,-0.00009,52.3,48.5,47,0,0,0.0,1.99,0.00,0.00
15min,AgWx,bigpiney,439,07JUN2021:05:45:00,42.1,12.48,41.6,41.3,42.6,46.0,39.5,58,65,51,0.543,28.9,29.5,28.3,6.116,4.8,235,17,7.6,0.00008,0.00012,52.2,48.5,47,3,0,0.0,1.99,0.00,0.00
15min,AgWx,bigpiney,439,07JUN2021:06:00:00,42.0,12.49,46.6,44.1,42.2,44.1,40.7,63,67,59,0.588,30.4,31.5,29.1,0.438,4.4,215,77,7.4,-0.00011,0.00009,52.1,48.4,47,13,0,0.0,1.99,0.00,0.00
15min,AgWx,bigpiney,439,07JUN2021:06:15:00,42.5,12.49,46.3,45.5,46.1,48.0,44.3,55,59,50,0.591,30.8,31.2,30.4,3.047,3.1,304,64,6.9,-0.00011,0.00008,52.0,48.4,47,28,0,0.0,1.99,0.00,0.00
15min,AgWx,bigpiney,439,07JUN2021:06:30:00,43.3,12.52,42.7,41.5,44.8,47.1,41.3,58,67,53,0.586,31.0,31.3,30.5,3.529,3.9,318,44,7.8,0.00017,0.00041,51.8,48.4,47,49,0,0.0,1.99,0.00,0.00
15min,AgWx,bigpiney,439,07JUN2021:06:45:00,44.2,12.52,42.1,42.0,42.3,43.5,41.7,67,71,61,0.643,32.0,33.3,30.9,2.609,1.4,359,66,3.3,0.00012,0.00019,51.7,48.4,47,106,0,0.0,1.99,0.00,0.00
15min,AgWx,bigpiney,439,07JUN2021:07:00:00,45.3,12.56,45.9,45.2,43.4,45.2,42.0,70,72,67,0.743,34.4,36.9,33.2,3.42,1.6,165,28,4.7,0.00032,0.00041,51.6,48.4,47,144,0,0.0,1.99,0.00,0.00
15min,AgWx,bigpiney,439,07JUN2021:07:15:00,46.8,12.6,48.1,47.5,46.1,47.5,45.2,67,73,63,0.725,35.9,37.5,34.5,3.288,3.7,144,26,7.0,0.00067,0.00089,51.5,48.3,47,186,0,0.0,1.99,0.00,0.00
15min,AgWx,bigpiney,439,07JUN2021:07:30:00,48.7,12.63,50.5,50.3,49.5,50.5,47.6,60,64,56,0.698,36.2,38.0,35.3,0,0.9,84,35,3.4,0.00084,0.00096,51.4,48.3,47,231,0,0.0,1.99,0.00,0.00
15min,AgWx,bigpiney,439,07JUN2021:07:45:00,51.0,12.68,51.9,51.5,51.0,51.6,50.2,57,61,53,0.686,36.5,38.1,34.7,3.99,2.2,35,22,4.8,0.00122,0.00145,51.3,48.3,47,280,0,0.0,1.99,0.00,0.00
15min,AgWx,bigpiney,439,07JUN2021:08:00:00,53.1,12.72,52.6,52.4,52.2,52.5,51.6,53,57,48,0.650,35.4,37.9,33.2,1.951,4.6,76,16,7.0,0.00168,0.00212,51.2,48.2,47,330,0,0.0,1.99,0.00,0.00
15min,AgWx,bigpiney,439,07JUN2021:08:15:00,55.0,12.79,54.4,54.4,53.4,54.4,52.4,51,55,48,0.789,35.8,38.5,33.4,5.108,4.5,77,20,7.1,0.00197,0.00244,51.1,48.2,47,375,0,0.0,1.99,0.00,0.00
15min,AgWx,bigpiney,439,07JUN2021:08:30:00,56.6,13.01,56.4,55.4,54.7,55.4,54.2,54,58,51,0.788,38.5,40.6,36.7,4.538,4.6,109,14,7.7,0.00226,0.00274,51.0,48.1,47,423,0,0.0,1.99,0.00,0.00
15min,AgWx,bigpiney,439,07JUN2021:08:45:00,58.0,13.32,56.8,57.0,56.1,57.4,55.3,51,54,47,0.791,38.5,40.8,36.4,3.091,4.2,107,22,7.7,0.00260,0.00311,50.9,48.1,47,473,0,0.0,1.99,0.00,0.00
15min,AgWx,bigpiney,439,07JUN2021:09:00:00,59.5,13.53,59.9,59.4,58.0,59.4,57.0,48,53,44,0.831,38.7,41.3,36.6,2.236,2.9,93,27,5.6,0.00291,0.00336,50.8,48.1,47,520,0,0.0,1.99,0.00,0.00